Weather reports worldwide

Advertisment
Achnagart, United Kingdom (99191): temperature & dewpoint: 21.06.2017 06:00:00 - 27.06.2017 06:00:00 (BST)Achnagart, United Kingdom (99191): temperature 5cm: 21.06.2017 06:00:00 - 27.06.2017 06:00:00 (BST)Achnagart, United Kingdom (99191): visibility: 21.06.2017 06:00:00 - 27.06.2017 06:00:00 (BST)Achnagart, United Kingdom (99191): precipitation: 21.06.2017 06:00:00 - 27.06.2017 06:00:00 (BST)
Date & Time tt [°C] td [°C] tt 5cm [°C] vv [km] rr [mm]
27.06.2017 06:00:00 - - - - 0,0
27.06.2017 05:00:00 12,1 7,4 - - 0,0
27.06.2017 04:00:00 11,9 7,8 - - 0,0
27.06.2017 03:00:00 11,7 8,2 - - 0,0
27.06.2017 02:00:00 11,8 8,0 - - 0,0
27.06.2017 01:00:00 12,0 8,1 - - 0,0
27.06.2017 00:00:00 12,1 7,7 - - 0,0
26.06.2017 23:00:00 12,5 7,7 - - 0,0
26.06.2017 22:00:00 12,9 7,5 - - 0,0
26.06.2017 21:00:00 13,3 8,0 - - 0,0
26.06.2017 20:00:00 13,8 7,2 - - 0,0
26.06.2017 19:00:00 14,2 7,7 - - 0,0
26.06.2017 18:00:00 15,8 8,3 - - 0,0
26.06.2017 17:00:00 15,6 7,4 - - 0,0
26.06.2017 16:00:00 16,4 8,1 - - 0,0
26.06.2017 15:00:00 14,9 6,1 - - 0,0
26.06.2017 14:00:00 14,3 6,5 - - 0,0
26.06.2017 13:00:00 14,1 6,7 - - 0,0
26.06.2017 12:00:00 12,3 7,6 - - 0,0
26.06.2017 11:00:00 12,9 7,1 - - 0,0
26.06.2017 10:00:00 13,3 7,8 - - 0,0
26.06.2017 09:00:00 11,8 9,5 - - 0,0
26.06.2017 08:00:00 10,7 9,8 - - 0,0
26.06.2017 07:00:00 9,9 9,7 - - 0,2
26.06.2017 06:00:00 9,4 9,4 - - 0,2
26.06.2017 05:00:00 9,3 9,1 - - 0,0
26.06.2017 04:00:00 9,3 9,0 - - 0,0
26.06.2017 03:00:00 9,5 9,1 - - 0,2
26.06.2017 02:00:00 9,7 8,9 - - 0,2
26.06.2017 01:00:00 9,4 8,4 - - 0,0
26.06.2017 00:00:00 9,3 7,7 - - 0,0
25.06.2017 23:00:00 9,2 7,5 - - 0,0
25.06.2017 22:00:00 11,1 7,5 - - 0,0
25.06.2017 21:00:00 12,9 7,6 - - 0,0
25.06.2017 20:00:00 12,7 6,9 - - 0,0
25.06.2017 19:00:00 13,7 7,2 - - 0,0
25.06.2017 18:00:00 13,4 7,3 - - 0,0
25.06.2017 17:00:00 13,0 8,1 - - 0,0
25.06.2017 16:00:00 11,1 7,5 - - 0,0
25.06.2017 15:00:00 - - - - 0,0
25.06.2017 14:00:00 - - - - 1,2
25.06.2017 13:00:00 - - - - 3,6
25.06.2017 12:00:00 11,5 9,4 - - 1,4
25.06.2017 11:00:00 11,0 9,4 - - 1,6
25.06.2017 10:00:00 11,8 8,4 - - 0,0
25.06.2017 09:00:00 12,6 7,7 - - 0,0
25.06.2017 08:00:00 11,4 8,2 - - 0,0
25.06.2017 07:00:00 11,1 7,3 - - 0,0
25.06.2017 06:00:00 10,6 8,0 - - 0,0
25.06.2017 05:00:00 10,4 8,1 - - 0,0
25.06.2017 04:00:00 10,6 8,3 - - 0,0
25.06.2017 03:00:00 10,4 8,8 - - 1,2
25.06.2017 02:00:00 10,2 9,0 - - 2,0
25.06.2017 01:00:00 10,9 7,6 - - 0,2
25.06.2017 00:00:00 10,4 8,0 - - 0,4
24.06.2017 23:00:00 11,7 6,7 - - 0,0
24.06.2017 22:00:00 11,4 7,1 - - 0,2
24.06.2017 21:00:00 11,1 7,0 - - 1,2
24.06.2017 20:00:00 10,4 7,6 - - 1,2
24.06.2017 19:00:00 11,8 5,7 - - 0,4
24.06.2017 18:00:00 10,5 7,5 - - 1,6
24.06.2017 17:00:00 11,0 7,6 - - 0,8
24.06.2017 16:00:00 10,8 8,2 - - 1,2
24.06.2017 15:00:00 10,6 7,9 - - 1,4
24.06.2017 14:00:00 11,0 7,0 - - 0,8
24.06.2017 13:00:00 11,1 7,6 - - 0,4
24.06.2017 12:00:00 11,9 7,5 - - 0,4
24.06.2017 11:00:00 11,1 7,0 - - 0,4
24.06.2017 10:00:00 10,8 7,2 - - 1,4
24.06.2017 09:00:00 10,5 6,7 - - 0,6
24.06.2017 08:00:00 11,6 6,0 - - 0,0
24.06.2017 07:00:00 11,0 6,2 - - 0,2
24.06.2017 06:00:00 10,4 7,0 - - 0,4
24.06.2017 05:00:00 10,3 7,0 - - 0,2
24.06.2017 04:00:00 10,6 5,9 - - 0,8
24.06.2017 03:00:00 10,5 6,7 - - 1,4
24.06.2017 02:00:00 10,3 7,8 - - 0,4
24.06.2017 01:00:00 12,2 5,5 - - 0,0
24.06.2017 00:00:00 12,2 6,2 - - 0,2
23.06.2017 23:00:00 11,2 6,6 - - 0,0
23.06.2017 22:00:00 11,4 7,1 - 10 0,2
23.06.2017 21:00:00 12,3 6,7 - - 0,0
23.06.2017 20:00:00 12,6 6,1 - - 0,0
23.06.2017 19:00:00 11,9 7,5 - - 0,0
23.06.2017 18:00:00 12,6 6,5 - - 0,0
23.06.2017 17:00:00 13,3 8,0 - - 0,0
23.06.2017 16:00:00 12,8 6,9 - - 0,0
23.06.2017 15:00:00 13,9 7,5 - - 0,0
23.06.2017 14:00:00 14,1 8,0 - - 0,0
23.06.2017 13:00:00 12,9 7,9 - - 0,2
23.06.2017 12:00:00 12,9 8,8 - - 0,4
23.06.2017 11:00:00 12,8 10,0 - - 0,4
23.06.2017 10:00:00 12,8 9,9 - - 0,2
23.06.2017 09:00:00 13,0 10,2 - - 0,2
23.06.2017 08:00:00 13,0 10,5 - - 0,8
23.06.2017 07:00:00 14,3 11,9 - - 0,8
23.06.2017 06:00:00 14,3 12,2 - - 1,4
23.06.2017 05:00:00 14,3 12,0 - - 1,4
23.06.2017 04:00:00 13,9 11,9 - - 1,2
23.06.2017 03:00:00 14,1 11,6 - - 2,0
23.06.2017 02:00:00 13,3 11,6 - - 1,8
23.06.2017 01:00:00 13,1 11,2 - - 2,8
23.06.2017 00:00:00 13,0 11,0 - - 1,6
22.06.2017 23:00:00 12,7 11,3 - - 2,4
22.06.2017 22:00:00 12,6 11,2 - - 1,0
22.06.2017 21:00:00 12,3 10,9 - - 2,0
22.06.2017 20:00:00 12,6 10,7 - - 1,2
22.06.2017 19:00:00 13,5 10,2 - - 0,0
22.06.2017 18:00:00 14,2 10,0 - - 0,0
22.06.2017 17:00:00 14,5 10,9 - - 0,2
22.06.2017 16:00:00 14,9 11,8 - - 0,0
22.06.2017 15:00:00 15,9 10,8 - - 0,0
22.06.2017 14:00:00 15,5 10,6 - - 0,0
22.06.2017 13:00:00 16,0 10,1 - - 0,0
22.06.2017 12:00:00 14,5 10,2 - - 0,0
22.06.2017 11:00:00 14,9 9,7 - - 0,0
22.06.2017 10:00:00 12,6 10,1 - - 0,0
22.06.2017 09:00:00 12,7 10,5 - - 0,0
22.06.2017 08:00:00 12,5 10,3 - - 0,0
22.06.2017 07:00:00 12,1 11,4 - - 0,0
22.06.2017 06:00:00 11,8 10,9 - - 0,0
22.06.2017 05:00:00 11,9 11,5 - - 0,4
22.06.2017 04:00:00 12,7 12,0 - - 0,0
22.06.2017 03:00:00 13,6 12,8 - - 0,0
22.06.2017 02:00:00 14,2 12,7 - - 0,0
22.06.2017 01:00:00 14,2 12,9 - - 0,0
22.06.2017 00:00:00 14,3 13,0 - - 0,0
21.06.2017 23:00:00 14,5 13,1 - - 0,0
21.06.2017 22:00:00 15,4 13,6 - - 0,0
21.06.2017 21:00:00 15,5 14,0 - - 0,0
21.06.2017 20:00:00 15,8 14,2 - - 0,0
21.06.2017 19:00:00 16,7 14,9 - - 0,6
21.06.2017 18:00:00 17,3 16,5 - - 1,4
21.06.2017 17:00:00 17,6 16,5 - - 4,0
21.06.2017 16:00:00 19,1 15,7 - - 1,4
21.06.2017 15:00:00 22,6 15,1 - - 0,0
21.06.2017 14:00:00 22,8 15,0 - - 0,0
21.06.2017 13:00:00 22,9 15,7 - - 0,0
21.06.2017 12:00:00 21,5 14,9 - - 0,0
21.06.2017 11:00:00 21,5 14,9 - - 0,0
21.06.2017 10:00:00 18,8 13,5 19,3 - 0,0
21.06.2017 09:00:00 17,4 12,2 - - 0,0
21.06.2017 08:00:00 16,1 11,4 - - 0,0
21.06.2017 07:00:00 15,5 10,6 - - 0,0
21.06.2017 06:00:00 14,2 10,2 - - 0,0

tt = temperature
td = dewpoint
tt 5cm = temperature 5cm
vv = visibility
rr = precipitation

Next stations